Regional Weather Roundup
Issued by NWS Midland/Odessa, TX

Skip options and go directly to product.
Home | Oldest Version | Next Version | Current Version | All | Text Only | Save Text | Print | Product List | Glossary On

Skip product version selection by date and time.   
431
ASUS44 KMAF 282101
RWRMAF
MIDLAND AREA WEATHER ROUNDUP
NATIONAL WEATHER SERVICE MIDLAND TX
400 PM CDT SAT MAY 28 2016

...IN SOUTHWEST TEXAS AND SOUTHEAST NEW MEXICO...

CITY           SKY/WX    TMP DP  RH WIND       PRES   REMARKS
ALPINE         SUNNY     90  32  12 S16G24    30.05F
ANDREWS        FAIR      93  19   6 W9G16     29.95F
ARTESIA        SUNNY     88  28  11 SE9       29.96F
BIG SPRING     SUNNY     90  53  27 S18       29.95F
CARLSBAD       SUNNY     89  22   8 S6        29.94F
DRYDEN           N/A     89  66  46 E20G28    29.90F
FORT STOCKTON  NOT AVBL
GUAD PASS      NOT AVBL
HOBBS          SUNNY     90  16   6 SW9G16    29.99F
MARFA          SUNNY     86  26  11 VRB3G22   30.04F
MIDLAND AIRPK  MOSUNNY   95  35  12 S15G25    29.94S
MIDLAND INTL   MOSUNNY   94  44  17 S12G23    29.93S
ODESSA         SUNNY     93  46  19 S14G21    29.94S
PECOS          SUNNY     93  17   6 SW7       29.90F
PRESIDIO       FAIR      96  26   8 SW7       29.88F
SEMINOLE       SUNNY     91  22   8 SW12G18   29.98S
SNYDER           N/A     89  46  22 CALM      29.95F
WINK           SUNNY     93  17   6 CALM      29.90F
$$
...OTHER STATIONS IN TEXAS...

CITY           SKY/WX    TMP DP  RH WIND       PRES   REMARKS
ABILENE        SUNNY     90  59  35 SW8       29.94F
AMARILLO       SUNNY     83  43  24 SW12      30.02F
AUSTIN         MOSUNNY   89  73  59 S13       29.91F
BROWNSVILLE    PTSUNNY   88  75  65 S17       29.89F
CORPUS CHRISTI PTSUNNY   87  75  67 SE20G26   29.91S
DALLAS FTW     MOSUNNY   86  72  62 S7        29.92F
DEL RIO        MOSUNNY   92  70  48 SE14G22   29.84F
EL PASO        MOSUNNY   87  12   6 MISG      29.96F
HOUSTON INT    MOSUNNY   88  68  51 S10       29.95S
LUBBOCK        MOSUNNY   85  38  18 VRB5      29.99S
SAN ANGELO     MOSUNNY   91  63  39 SE8       29.92F
SAN ANTONIO    MOSUNNY   91  72  53 S15       29.91F
WACO           MOSUNNY   88  72  58 S10       29.93F
WICHITA FALLS  NOT AVBL
$$
...OTHER LOCATIONS IN NEW MEXICO...

CITY           SKY/WX    TMP DP  RH WIND       PRES   REMARKS
ALAMAGORDO     SUNNY     86  14   7 S8G18     29.99F
ALBUQUERQUE    MOSUNNY   77  23  13 VRB5      30.06F
CANNON AFB     DRIZZLE   81  37  20 S10G22    30.03F
CLOVIS         MOSUNNY   82  39  21 S6        30.04S
HOLLOMAN AFB   SUNNY     86  11   6 VRB7      29.97F
ROSWELL        SUNNY     87  28  12 E10G17    29.97F
RUIDOSO        MOSUNNY   72  23  16 E9G26     30.16S
SANTA FE       SUNNY     76  14   9 W9G26     30.10S
TRUTH OR CONSE SUNNY     82  15   8 S16G22    30.01F
TUCUMCARI      MOSUNNY   84  27  12 S10G18    29.98F
$$

USA.gov is the U.S. government's official web portal to all federal, state and local government web resources and services.